Terminal Aerodrome Forecast
Issued by NWS

Home | Current Version | Previous Version | Text Only | Print | Product List | Glossary On
Versions: 1 2 3 4 5 6 7 8 9 10 11 12 13 14 15 16 17 18
000
FTAK31 PAJN 071725
TAFAYA
TAF
PAYA 071725Z 0718/0818 07012G21KT P6SM VCSH OVC035 WS020/09025KT
      TEMPO 0718/0721 6SM -RASN BR OVC025
     FM072100 10012G22KT 6SM -RASN SCT025 OVC040 WS020/15025KT
     FM080000 12010KT 6SM -SHRA BR SCT015 OVC030
     FM081200 VRB04KT P6SM VCSH SCT025 BKN080
      AMD LTD TO CLD VIS AND WIND 0801/0809=

USA.gov is the U.S. government's official web portal to all federal, state and local government web resources and services.